Reflectivity
13 14 13 2 -20 -20 -7 -9 -20 -20 -20 -20 -20 -20 -20 -20 -20 -20 -20 -20 -20 -20 -20 -20 -20 -20 -20 -20 -20 -20 -20 -20 -20 -20 -20 -20 -20 -20 -20 -20 -20 -20 -20 -20 -20 -20 -20 -20 -20 -20 -20 -20 -20 -20
14 9 11 -1 -20 -20 -20 -20 -20 -20 -20 -20 -20 -20 -20 -20 -20 -20 -20 -20 -20 -20 -20 -20 -20 -20 -20 -20 -20 -20 -20 -20 -20 -20 -20 -20 -20 -20 -20 -20 -20 -20 -20 -20 -20 -20 -20 -20 -20 -20 -20 -20 -20 -20
13 6 5 -20 -20 -20 -20 -20 -20 -20 -20 -20 -20 -20 -20 -20 -20 -20 -20 -20 -20 -20 -20 -20 -20 -20 -20 -20 -20 -20 -20 -20 -20 -20 -20 -20 -20 -20 -20 -20 -20 -20 -20 -20 -20 -20 -20 -20 -20 -20 -20 -20 -20 -20
14 -2 5 -20 -20 -20 -20 -20 -20 -20 -20 -20 -20 -20 -20 -20 -20 -20 -20 -20 -20 -20 -20 -20 -20 -20 -20 -20 -20 -20 -20 -20 -20 -20 -20 -20 -20 -20 -20 -20 -20 -20 -20 -20 -20 -20 -20 -20 -20 -20 -20 -20 -20 -20
-6 12 11 -5 -20 -20 -20 -20 -20 -1 -20 10 -9 -20 -20 -20 -19 -20 -20 -20 -20 -20 -20 -20 -20 -20 -20 -20 -20 -20 -20 -20 -20 -20 -20 -20 -20 -20 -20 -20 -20 -20 -20 -20 -20 -20 -20 -20 -20 -20 -20 -20 -20 -20
11 -6 13 1 -20 -20 -20 -20 -20 -20 -20 -16 15 -4 -20 -20 -20 -20 -20 -20 -20 -20 -20 -20 -20 -20 -20 -20 -20 -20 -20 -20 -20 -20 -20 -20 -20 -20 -20 -20 -20 -20 -20 -20 -20 -20 -20 -20 -20 -20 -20 -20 -20 -20
17 13 2 3 -13 -15 -18 -20 -20 -20 -20 -20 -20 12 9 -20 -20 -20 -20 -17 -3 -17 -20 -20 -20 -20 -19 -20 -20 -20 -20 -20 -20 -20 -20 -20 -20 -20 -20 -20 -20 -20 -20 -20 -20 -20 -20 -20 -20 -20 -20 -20 -20 -20
7 9 10 11 12 -20 7 -20 -20 -20 -20 -20 -13 15 9 7 -18 -20 -20 -20 -20 -7 6 -1 3 10 5 -7 -19 -20 -20 -20 -20 -20 -20 -20 -20 -20 -20 -20 -20 -20 -20 -20 -20 -20 -20 -20 -20 -20 -20 -20 -20 -20
6 4 6 2 -1 5 2 -12 -15 -20 -20 -13 11 9 -3 -12 -20 -20 -20 -20 -20 -20 -20 -11 10 6 -2 -6 -11 -18 -20 -20 -20 -20 -20 -20 -20 -20 -20 -20 -20 -20 -20 -20 -20 -20 -20 -20 -20 -20 -20 -20 -20 -20
19 15 12 14 8 -20 -20 -20 -20 -20 -7 12 -16 -20 -20 -20 -20 -20 -20 -20 -20 -20 -20 -20 -20 -16 -20 -20 -20 -20 -20 -20 -20 -20 -20 -20 -20 -20 -20 -20 -20 -20 -20 -20 -20 -20 -20 -20 -20 -20 -20 -20 -20 -20
25 24 25 20 5 -20 -20 -20 -20 -19 -4 -20 -20 -20 -20 -20 -20 -20 -20 -20 -20 -15 -20 -20 -20 -20 -20 -20 -20 -20 -20 -20 -15 -20 -18 -20 -20 -20 -20 -20 -20 -20 -20 -20 -20 -20 -20 -20 -20 -20 -20 -20 -20 -20
14 9 8 -4 -19 -20 -20 -20 -20 -20 -20 -20 -20 -20 -20 -20 -20 -20 -17 -20 -20 -20 -20 -20 -20 -20 -20 -20 -20 -20 -20 -20 -20 -20 -20 -20 -20 -20 -20 -20 -20 -20 -20 -20 -20 -20 -20 -20 -20 -20 -20 -20 -20 -20
-11 -12 -14 -20 -20 -20 -20 -20 -13 -20 -20 -20 -18 -20 -20 -20 -17 -20 -20 -20 -20 -20 -20 -20 -20 -20 -20 -20 -20 -20 -20 -20 -20 -20 -20 -20 -20 -20 -20 -20 -20 -20 -20 -20 -20 -20 -20 -20 -20 -20 -20 -20 -20 -20
2 -11 -19 -20 -20 -20 -20 -20 -20 -20 -20 -19 -6 -20 -20 -20 -20 -20 -20 -20 -20 -20 -20 -20 -20 -20 -20 -20 -20 -20 -20 -20 -20 -20 -20 -20 -20 -20 -20 -18 -20 -20 -20 -20 -20 -20 -20 -20 -20 -20 -20 -20 -20 -20
-7 -17 -12 -7 -19 -20 -20 -20 -20 -20 -20 -20 -3 -12 -20 -20 -20 -20 -20 -20 -20 -20 -20 -20 -20 -20 -20 -20 -20 -20 -20 -20 -20 -20 -20 -20 -20 -20 -20 -18 -20 -20 -20 -20 -20 -20 -20 -20 -20 -20 -20 -20 -20 -18
-20 -18 -14 -12 -3 -18 -20 -20 -9 -20 -20 -15 -20 -19 -20 -20 -20 -20 -20 -20 -20 -20 -20 -20 -20 -20 -20 -20 -20 -20 -20 -20 -20 -20 -20 -20 -20 -20 -20 -20 -20 -20 -20 -20 -20 -20 -20 -20 -20 -20 -20 -20 -20 -20
-5 -20 -15 -17 -20 -20 -20 -20 -20 -16 -20 -20 -18 -20 -20 -20 -20 -20 -20 -20 -20 -20 -20 -20 1 -20 -20 -20 -20 -20 -20 -20 -20 -20 -20 -20 -20 -20 -20 -20 -20 -20 -20 -20 -20 -20 -20 -20 -20 -20 -20 -20 -20 -20
-20 -20 -20 -18 -20 -20 -20 -20 -20 -20 -20 -20 -20 -20 -20 -18 -20 -20 -20 -20 -20 -20 -20 -20 -20 -20 -4 -20 -20 -20 -20 -20 -20 -20 -20 -20 -20 -20 -20 -20 -20 -20 -20 -20 -20 -20 -20 -20 -20 -20 -20 -20 -20 -20
-20 -20 -20 -2 -20 -20 -20 -20 1 -20 -20 -20 -20 -20 -20 -20 -20 -20 -20 -20 -20 -20 -17 -16 16 -20 -20 -20 -20 -20 -20 -20 -20 -20 -20 -20 -20 -20 -20 -20 -20 -20 -20 -20 -20 -20 -20 -20 -20 -20 -20 -20 -20 -20
-20 -20 -20 -20 -15 -20 -20 -19 -13 -20 -20 -20 -20 -20 -20 -20 -20 -20 -20 -20 -20 -20 14 11 -14 -20 -20 -20 -20 -20 -20 -20 -19 -20 -20 -20 -20 -20 -20 -20 -20 -20 -20 -20 -20 -20 -20 -20 -20 -20 -20 -20 -20 -20
8 -20 14 20 -20 -20 -15 -20 -17 -20 -20 -20 -20 -20 -20 -20 -20 -20 -20 -20 -20 2 -6 -20 -20 -20 -20 -20 -20 -20 -20 -20 -20 -20 -20 -20 -20 -20 -20 -20 -20 -20 -20 -20 -20 -20 -20 -20 -20 -20 -20 -20 -20 -20
-0 6 -20 6 -20 5 12 -20 -17 -20 -15 -20 -20 -20 -20 -20 -20 -20 -20 -20 -20 -20 -20 -20 -20 -20 -20 -20 -20 -20 -20 -20 -20 -20 -20 -20 -20 -20 -20 -20 -20 -20 -20 -20 -20 -20 -20 -20 -20 -20 -20 -20 -20 -20
-7 -14 11 -18 12 2 -20 -20 -20 -20 -17 -20 -20 -20 -20 -20 -20 -20 -20 -20 -20 -20 -20 -20 -20 -20 -20 -20 -20 -20 -20 -20 -20 -20 -20 -20 -20 -20 -20 -20 -20 -20 -20 -20 -20 -20 -20 -20 -20 -20 -20 -20 -20 -20
25 20 17 2 -3 -19 -20 -14 -19 -20 -20 -20 -20 -20 -20 -20 -20 -20 -20 -20 -20 -20 -20 -20 -20 -20 -20 -20 -20 -20 -20 -20 -20 -20 -20 -20 -20 -20 -20 -20 -20 -20 -20 -20 -13 -20 -20 -20 -20 -20 -20 -20 -20 -20
23 26 16 14 -11 -1 -20 -20 -20 -20 -20 -20 -20 -20 -20 -20 -20 -20 -20 -20 -20 -20 -20 -20 -20 -20 -20 -20 -20 -20 -20 -20 -20 -9 -20 -12 6 -19 -20 -20 -20 -20 -20 -18 1 -20 -20 -20 -20 -20 -20 -20 -20 -20
21 9 11 -19 -20 -20 -20 -20 -20 -20 -20 -20 -20 -20 -20 -20 -20 -4 -20 -20 -20 -20 -20 -20 -20 -20 -20 -20 -20 -20 -20 -19 13 12 -15 3 17 11 -20 -20 -20 -20 -17 8 -1 -20 -20 -18 -17 -20 -20 -20 -20 -20
18 -0 -14 -20 -20 -20 -20 -20 -20 -20 -20 -20 -20 -20 -20 6 -16 -20 -20 -20 -20 -20 -20 -20 -20 -20 -20 -20 -20 -20 -20 -17 10 7 -20 -20 -20 -20 -0 11 -4 -20 -20 -20 -20 -20 -20 -20 -20 -20 -20 -20 -20 -12
4 -20 -20 -20 -20 -20 -20 -20 -20 -20 -20 -20 -20 -20 -20 -20 -20 -20 -20 -20 -20 -20 -20 -20 -20 -20 -20 -20 -20 -20 -20 -20 -20 -16 -18 -20 -20 -20 -11 -14 -20 -20 -20 -20 -20 -20 -20 -20 -20 -20 -20 -20 -20 -7
-20 -20 -20 -20 -20 -20 -20 -20 -20 -20 -20 -20 -20 -20 -20 -20 -20 -20 -20 -20 -20 -20 -20 -20 -20 -20 -20 -20 -20 -20 -20 -20 -20 -20 -20 -20 -20 -20 -20 -20 -20 -20 -20 -20 -20 -20 -20 -20 -20 -20 -20 -20 -20 -0
-20 -20 -20 -20 -20 -20 -20 -20 -20 -20 -20 -20 -20 -20 -20 -20 -20 -20 -20 -20 -20 -20 -20 -20 -20 -20 -20 -20 -20 -20 -20 -20 -20 -20 -20 -20 -20 -20 -20 -20 -20 -20 -20 -20 -20 -20 -20 -20 -20 -20 -20 -20 -20 4
-20 -20 -20 -20 -20 -20 -20 -20 -20 -20 -20 -20 -20 -20 -20 -20 -20 -20 -20 -20 -20 -20 -20 -20 -20 -20 -20 -20 -20 -20 -20 -20 -20 -20 -20 -20 -20 -20 -20 -20 -20 -20 -20 -20 -20 -20 -20 -20 -20 -20 -20 -20 -20 -1
-20 -20 -20 -20 -20 -20 -20 -20 -20 -20 -20 -20 -20 -20 -20 -20 -20 -20 -15 4 4 -13 -20 -20 -20 -20 -20 -20 -20 -20 -20 -20 -20 -20 -20 -20 -20 -20 -20 -20 -20 -20 -20 -20 -20 -20 -20 -20 -20 -20 -20 -20 -20 -0
-20 -20 -20 -20 -20 -20 -20 -20 -20 -20 -20 -20 -20 -20 -19 1 2 -3 1 15 16 11 -2 -20 -20 -20 -20 -20 -20 -20 -20 -20 -20 -20 -20 -20 -20 -20 -20 -20 -20 -20 -20 -20 -20 -20 -20 -20 -20 -20 -20 -20 -20 1
Wind_Speed
10 9 7 4 3 3 5 4 3 1 2 5 8 9 11 13 13 4 1 3 3 2 5 1 1 2 1 2 4 3 4 2 3 2 3 3 3 4 1 4 7 8 7 5 3 4 12 7 4 8 7 2 3 3
11 10 8 5 4 4 4 4 5 3 2 1 3 7 9 10 12 4 1 3 1 3 4 2 3 2 0 2 4 1 3 3 5 4 1 1 3 1 5 5 3 4 9 8 13 11 6 7 7 6 2 4 5 4
13 11 9 6 5 5 3 4 4 6 5 3 1 2 6 8 9 5 1 2 2 2 4 3 1 4 3 4 0 4 2 1 1 3 3 1 4 4 4 7 2 5 5 5 1 10 14 15 12 8 5 9 8 8
14 13 11 9 7 5 3 2 3 5 6 7 4 2 2 6 7 4 2 1 2 2 1 4 0 2 3 5 1 1 2 3 4 3 2 2 3 4 4 4 4 7 4 4 7 17 14 12 9 10 9 7 9 8
16 13 12 10 8 6 4 2 1 4 5 6 8 5 1 3 6 2 1 2 0 2 3 4 2 2 3 2 2 1 2 3 2 1 2 4 2 1 2 1 6 7 8 6 9 7 6 9 6 6 7 6 6 5
17 13 11 10 7 5 3 1 1 3 4 6 6 7 5 1 4 1 3 2 1 1 2 3 2 2 4 4 5 4 2 2 2 3 3 3 3 1 3 5 9 6 5 6 10 6 8 14 11 8 9 10 7 6
13 11 10 8 7 5 3 2 2 4 5 5 6 7 5 3 2 3 2 2 0 1 2 5 4 1 2 3 2 2 2 2 3 2 2 2 2 1 3 5 4 3 6 8 9 6 13 5 8 9 8 8 5 5
12 10 8 7 6 5 4 2 3 4 5 4 6 5 4 3 3 2 2 3 1 1 2 1 4 2 2 1 1 1 1 2 1 1 2 2 2 0 7 7 8 9 12 14 10 5 10 14 9 8 5 3 5 6
11 10 8 6 5 3 1 1 3 5 4 4 7 6 1 2 1 1 1 3 1 2 2 2 2 2 1 1 1 2 1 0 1 1 3 2 3 8 8 7 10 11 6 15 15 11 13 8 9 7 6 7 6 7
8 9 8 7 7 5 3 4 3 2 9 10 3 0 3 1 2 3 3 2 4 2 2 3 0 2 3 1 1 2 1 1 2 2 1 2 6 6 14 12 11 11 11 6 7 10 10 8 8 8 7 6 5 6
14 12 8 6 5 5 5 4 9 10 5 2 1 1 1 3 3 2 0 2 1 2 3 3 3 2 1 2 2 2 2 1 2 2 2 3 6 6 4 5 7 7 7 7 6 8 7 8 8 7 8 6 6 6
10 9 8 6 5 4 4 4 9 3 2 3 3 2 1 2 1 1 2 1 4 3 2 3 3 3 1 1 2 1 3 2 5 0 2 5 7 8 6 7 8 7 7 8 5 8 9 8 7 7 7 6 5 5
9 8 7 6 5 4 4 6 4 5 6 2 3 2 1 2 3 5 4 4 4 2 3 2 1 2 2 2 1 2 2 5 2 2 6 8 5 5 7 6 8 7 6 7 8 6 7 8 8 4 6 6 6 6
7 6 5 4 4 3 2 3 5 4 3 2 2 4 5 5 6 5 5 4 4 3 3 2 2 2 2 2 2 1 3 2 2 3 9 4 4 3 5 5 5 10 9 7 8 7 8 7 8 8 8 7 6 7
7 5 4 3 3 2 1 3 10 2 3 2 2 5 6 3 1 2 1 1 2 2 3 3 3 2 2 1 3 1 1 4 6 8 5 4 3 2 4 5 7 8 8 8 6 6 8 7 6 9 7 8 9 8
8 4 4 6 6 5 4 6 2 2 2 2 5 3 3 0 4 1 1 3 2 3 2 3 3 3 5 4 5 7 4 9 7 6 4 2 3 5 8 7 8 8 9 9 9 8 8 8 9 9 7 7 9 9
8 3 3 5 8 9 10 3 3 1 3 4 4 4 2 2 4 4 4 4 3 4 3 3 3 12 0 4 5 6 9 5 5 6 2 4 9 11 9 8 8 10 11 10 9 9 9 8 5 4 10 14 9 10
2 2 4 6 5 6 2 2 2 3 7 6 5 3 2 2 3 4 4 3 4 3 4 6 3 4 7 7 8 5 5 5 5 7 8 9 8 8 7 10 13 12 12 10 9 11 7 8 8 10 12 11 10 8
5 5 4 6 5 4 3 2 3 4 8 2 3 3 4 3 4 5 4 5 5 2 3 3 6 6 8 4 8 9 8 5 7 7 9 13 9 11 12 11 11 11 12 9 10 11 11 11 10 11 10 7 9 9
12 11 9 7 6 3 1 3 2 4 4 5 0 2 4 5 5 4 6 4 4 3 5 5 12 12 9 10 6 5 6 8 10 14 17 15 12 14 11 10 11 13 11 12 10 13 8 8 8 8 8 9 8 10
6 5 9 5 2 2 2 3 4 4 2 3 2 2 4 1 2 3 4 4 3 5 7 9 12 12 14 15 13 12 13 12 14 15 16 14 12 12 13 13 13 9 7 9 11 12 11 9 11 10 9 9 9 9
4 11 3 3 3 4 4 6 3 2 2 4 2 4 4 4 4 5 3 3 5 8 9 10 12 13 15 16 15 17 16 17 16 12 16 16 12 12 12 11 9 10 10 11 10 10 11 10 9 8 9 10 11 8
9 5 3 3 5 7 8 5 6 6 6 5 3 4 6 4 6 2 3 5 6 9 10 11 15 17 16 18 16 16 16 17 14 14 14 13 13 12 12 12 11 10 11 12 8 8 10 15 12 10 9 9 7 8
9 6 7 6 8 6 3 7 3 3 2 2 3 5 5 6 1 1 6 7 12 8 10 15 11 11 11 12 12 14 15 11 11 12 12 12 10 12 11 11 10 9 10 9 11 10 9 11 15 9 8 9 9 9
6 8 6 6 6 7 7 4 5 4 7 7 5 5 6 2 4 4 6 7 11 10 11 11 10 10 12 14 13 13 15 9 9 10 12 6 11 10 10 9 10 11 5 6 12 10 11 10 10 9 10 9 11 9
8 9 8 9 4 7 8 6 8 9 4 3 8 6 2 4 3 8 7 12 13 12 12 11 10 10 10 11 12 12 13 9 6 7 13 9 10 11 11 11 10 15 5 8 9 10 13 11 10 12 11 12 16 10
7 8 5 3 3 3 1 2 0 4 8 10 6 2 4 7 9 8 8 8 9 9 9 9 9 10 11 11 8 9 10 8 8 10 10 10 9 9 8 12 15 16 9 6 5 8 13 13 11 12 11 9 8 7
6 7 11 7 6 4 6 3 6 8 7 4 4 5 9 11 14 13 11 9 7 6 7 7 7 9 10 11 10 10 11 9 7 6 8 11 10 10 14 12 14 27 14 12 10 9 9 10 10 11 10 10 7 5
6 3 5 6 2 4 8 8 9 8 11 7 8 15 18 15 15 14 14 13 11 6 10 12 12 8 8 9 9 10 11 10 5 13 17 15 15 11 6 10 10 9 6 8 14 13 10 9 10 9 9 7 4 3
7 6 5 5 8 8 10 9 8 13 8 10 10 13 14 15 16 15 13 13 13 14 14 15 15 14 15 14 16 17 12 10 10 12 12 15 16 7 4 6 7 6 6 6 7 7 11 7 5 1 2 2 2 2
5 5 2 5 9 14 16 14 10 11 12 13 14 13 18 17 20 17 14 15 15 14 15 17 17 14 14 16 15 15 16 14 9 16 17 14 13 10 9 10 9 6 5 6 6 6 5 3 5 5 6 6 6 6
5 9 7 7 14 15 3 4 4 4 11 12 15 13 15 12 24 18 12 11 13 15 21 20 17 19 17 14 14 14 22 14 13 10 10 9 10 11 11 9 8 5 6 6 6 6 6 8 6 8 8 8 7 7
2 1 3 6 7 8 4 3 5 6 7 13 16 15 16 15 25 22 12 6 12 14 16 17 17 15 18 18 15 14 16 12 18 22 23 22 22 20 10 7 7 7 7 7 7 6 9 9 9 8 8 8 8 7
Wind_Direction
203 209 222 236 251 279 294 294 270 318 343 352 354 10 11 1 7 46 288 7 99 148 275 245 203 136 80 129 153 231 34 342 41 88 147 216 184 233 274 199 183 173 153 200 150 213 273 163 61 167 217 268 249 268
202 195 211 241 269 264 279 297 279 253 211 261 341 357 7 8 3 28 38 334 59 147 235 313 306 332 83 179 145 269 196 165 197 97 247 94 239 186 177 256 152 237 193 182 188 216 240 212 221 233 207 251 266 246
198 194 194 216 245 258 264 283 295 282 266 230 240 346 2 2 3 25 250 305 41 28 313 29 39 352 30 24 234 150 274 224 78 152 167 225 251 132 202 236 222 255 174 231 134 253 248 241 252 269 246 245 242 237
191 190 194 199 220 226 236 264 295 297 289 268 245 231 359 1 358 28 340 299 86 121 41 280 146 50 319 1 315 151 149 49 92 81 167 197 209 167 232 268 205 216 145 210 265 285 295 278 263 258 267 270 268 270
185 188 192 194 198 211 201 176 282 291 306 285 243 221 233 351 350 29 359 349 271 109 240 274 318 19 355 356 30 92 115 117 125 123 159 227 236 272 250 307 238 180 216 190 236 255 242 275 288 288 273 260 251 245
173 178 183 181 184 194 207 204 215 298 325 322 272 216 184 272 21 80 326 324 354 73 49 314 313 4 3 56 75 92 114 92 109 158 223 261 274 170 273 252 256 249 297 287 281 332 287 287 266 242 248 255 256 235
155 166 173 175 177 179 193 212 273 298 299 304 313 221 178 147 103 127 230 275 6 68 63 312 327 315 343 51 30 45 49 120 134 208 232 256 303 235 263 253 260 289 291 288 278 302 294 256 284 295 258 270 290 272
147 157 168 176 178 174 205 245 285 293 299 281 318 183 133 112 87 68 341 360 75 80 74 251 274 356 354 29 16 335 87 48 36 192 292 224 290 83 254 255 300 293 306 297 295 308 271 290 287 288 303 310 282 279
139 148 154 161 149 149 179 318 286 285 280 282 118 120 95 69 80 207 359 45 58 132 199 188 206 271 22 33 53 18 13 260 238 235 237 136 216 229 237 280 279 288 272 292 306 297 295 284 284 291 279 280 260 272
136 139 143 146 136 126 85 28 350 316 113 117 82 37 294 32 142 87 19 0 15 325 47 221 107 239 115 49 304 92 340 278 257 244 118 221 260 264 260 254 276 295 300 298 315 325 330 317 310 304 287 288 265 270
171 164 163 151 132 106 86 86 120 119 94 65 74 155 258 320 52 38 194 223 170 240 203 242 198 178 198 133 206 157 199 180 270 236 243 263 271 250 262 282 279 296 307 290 253 269 275 277 291 297 301 300 301 298
158 152 147 137 116 92 53 338 158 62 79 119 121 110 98 65 69 271 220 249 228 218 207 184 225 196 288 95 114 201 151 170 242 304 222 254 252 258 305 313 317 322 319 312 301 289 288 281 279 282 281 285 280 275
159 154 148 135 119 101 77 70 51 133 122 68 59 34 179 177 190 210 219 232 239 216 209 170 171 137 37 39 47 88 173 223 88 77 231 232 261 293 298 317 317 316 316 308 306 291 292 296 298 257 277 267 270 270
155 157 156 155 134 111 86 68 118 119 84 114 168 241 217 203 219 201 178 202 240 137 145 127 96 139 164 105 173 166 233 90 27 252 239 246 243 291 316 299 335 318 321 301 290 294 298 293 290 288 267 251 250 253
153 153 177 213 176 152 54 17 139 71 105 172 217 241 234 219 255 254 254 71 244 150 111 77 40 80 347 278 208 158 198 227 214 233 233 248 259 286 314 304 293 287 294 304 296 291 287 274 266 278 274 272 260 247
151 158 208 183 169 174 150 89 53 77 39 226 230 241 228 24 237 243 255 262 191 122 66 62 112 49 250 193 200 210 181 217 239 215 226 250 266 263 305 297 285 274 274 279 288 275 274 278 272 266 274 249 242 244
150 218 189 160 173 176 143 90 65 137 230 228 240 231 186 128 194 216 196 229 141 112 182 118 151 221 22 227 225 199 212 226 236 284 225 235 261 278 272 266 264 268 279 286 283 284 273 277 278 270 271 274 255 231
183 203 181 120 104 93 61 71 146 205 244 238 240 205 179 243 204 257 221 168 131 175 140 207 157 193 217 223 240 244 259 255 272 279 279 273 273 264 256 274 289 286 282 279 272 278 261 278 272 267 263 263 270 259
174 171 170 140 125 101 117 182 165 240 241 240 244 166 163 227 230 235 219 199 202 141 138 182 238 233 237 254 267 271 265 255 269 284 287 292 272 273 278 275 276 279 278 268 274 279 282 272 261 276 276 271 261 268
187 195 190 194 133 112 158 248 180 228 255 231 4 225 199 199 199 205 220 218 159 165 212 229 247 253 263 271 238 243 253 268 285 293 293 293 292 289 281 280 283 284 287 289 279 273 280 277 270 268 263 259 264 268
186 205 204 160 62 151 203 187 214 232 220 232 239 185 239 275 231 203 229 156 126 203 240 232 247 255 253 255 261 265 268 267 269 272 278 284 284 283 284 284 280 279 266 278 277 286 290 273 279 282 274 267 258 251
169 148 96 117 137 192 244 221 191 212 207 235 298 176 236 250 232 222 200 138 206 233 237 245 244 252 258 262 257 258 263 267 272 274 276 277 278 276 277 274 276 276 271 267 270 269 269 268 266 269 268 269 274 265
132 105 125 151 183 192 247 161 188 192 218 228 199 217 234 225 225 90 231 219 242 241 242 242 247 250 253 260 267 264 262 263 265 267 271 269 267 270 270 269 264 263 268 269 260 251 258 271 275 269 268 272 265 269
134 168 178 199 183 223 157 205 197 185 211 199 188 238 265 217 135 165 234 242 253 259 249 252 249 255 263 261 255 257 259 260 262 266 263 267 271 267 264 269 272 259 245 262 272 273 271 270 276 273 262 266 268 264
199 194 184 183 185 199 203 204 199 191 227 206 189 248 264 102 191 217 217 249 250 254 247 248 245 236 241 257 266 267 264 256 257 258 263 262 263 268 269 264 259 256 244 235 262 266 266 270 269 261 261 257 262 265
213 197 188 192 226 193 194 192 202 211 157 194 227 238 82 164 183 244 225 246 247 250 249 247 244 250 252 243 253 263 265 255 220 226 254 240 236 241 260 276 282 285 226 218 245 261 273 277 272 270 269 268 272 268
190 203 224 221 173 126 204 305 179 160 190 206 225 164 163 230 232 244 250 239 242 251 250 239 234 242 251 259 250 246 255 254 215 238 259 271 247 224 230 259 261 258 265 216 219 250 276 284 281 278 275 270 250 234
201 174 187 194 198 187 183 196 196 212 228 216 105 185 203 210 247 255 252 262 241 249 251 244 231 232 232 237 241 253 254 248 229 252 274 273 252 250 252 251 250 259 262 263 260 259 255 260 266 266 265 260 256 212
204 202 130 199 180 187 209 203 225 227 238 218 231 253 252 252 260 268 264 262 266 230 256 262 263 237 241 247 247 245 250 253 199 248 250 263 281 264 200 235 245 249 235 244 256 248 244 250 257 253 253 243 235 199
224 183 183 182 175 219 231 197 234 247 252 243 251 265 268 266 258 262 268 266 265 259 256 257 257 256 256 255 259 262 250 237 210 220 240 249 254 269 217 233 233 232 226 231 250 261 274 272 285 341 173 193 190 187
150 151 167 203 230 241 242 255 258 256 261 259 256 257 262 269 271 258 259 260 258 261 261 259 260 254 250 255 253 257 266 264 226 220 229 247 260 263 257 255 257 247 211 225 237 239 240 233 208 203 206 216 215 219
167 196 202 236 246 249 236 218 240 228 260 257 258 255 266 264 266 277 249 246 253 251 254 257 257 262 257 250 248 246 250 259 259 245 236 233 244 246 247 251 255 241 218 225 229 232 222 223 215 212 219 218 206 205
271 43 248 252 274 264 240 154 251 268 259 258 258 254 253 247 261 271 284 192 233 246 250 253 254 252 252 253 251 256 254 250 256 255 252 248 246 251 250 242 242 229 220 230 231 222 222 214 216 210 208 210 198 193